Wind_Speed
11 11 11 12 13 13 13 13 13 14 14 14 14 14 15 14 14 14 15 15 15 15 15 15 16 16 16 16 16 16 16 16 17 18 18 18 18 18
12 12 12 13 13 14 14 15 15 15 15 16 16 16 16 16 16 16 16 17 17 17 17 17 17 18 18 18 18 18 18 18 18 19 20 19 20 20
13 13 13 14 14 14 15 15 16 16 17 17 18 18 18 18 18 18 18 18 18 18 18 19 20 20 20 20 19 20 20 20 20 20 20 21 22 23
14 14 14 14 15 16 16 17 17 18 18 19 19 19 19 19 20 20 20 20 20 20 20 21 22 21 21 20 21 21 21 22 22 22 23 24 24 24
15 15 16 16 16 17 17 18 19 19 19 19 19 20 20 20 21 21 21 21 22 22 22 23 23 23 22 23 23 23 23 24 24 25 26 26 27 27
17 17 17 17 18 18 18 19 20 20 20 20 20 21 21 21 22 22 23 24 24 24 24 25 25 25 25 25 25 26 26 27 28 28 29 29 30 30
18 19 19 19 19 19 20 21 21 21 21 22 22 22 23 23 23 24 25 25 26 26 27 27 27 27 27 27 28 29 29 30 31 31 31 32 33 34
19 19 20 20 21 21 22 22 22 22 23 23 23 24 25 24 25 25 26 27 27 28 28 29 29 29 29 30 30 31 32 32 33 33 34 35 36 37
20 20 21 21 22 23 23 23 24 24 25 25 25 26 26 26 27 28 28 28 28 29 30 30 31 30 31 32 33 34 34 35 36 36 37 37 38 39
22 22 22 23 23 23 24 25 25 25 26 27 27 28 28 29 29 30 30 31 31 31 32 33 34 34 35 36 36 37 37 38 39 39 39 40 40 41
23 23 24 25 25 26 26 27 27 27 28 29 29 30 30 31 31 31 32 32 33 34 35 35 36 37 37 38 39 40 41 41 42 42 43 43 43 43
23 24 25 27 28 28 28 29 29 29 30 31 31 31 32 32 33 33 34 34 34 35 36 37 37 37 38 39 40 41 42 43 45 45 45 45 46 46
23 24 25 27 28 28 28 29 29 30 31 31 31 31 32 32 33 34 35 35 35 36 37 37 38 38 39 40 41 42 43 44 45 45 45 46 46 46
24 25 26 27 28 28 29 29 30 30 31 31 32 32 32 33 34 35 36 36 37 37 38 39 39 39 40 41 42 43 44 44 44 45 46 46 47 47
26 26 27 27 28 29 30 30 30 31 31 31 32 33 34 34 34 35 36 36 37 38 39 40 41 42 42 43 44 44 45 46 46 46 47 47 47 46
26 27 28 28 29 30 30 30 30 30 31 32 33 35 36 36 36 37 37 37 38 39 40 41 42 43 44 45 46 46 47 47 47 47 47 47 47 48
27 28 29 30 31 31 31 31 32 33 34 34 35 35 36 37 37 37 38 39 40 41 42 43 44 45 45 45 45 46 47 47 47 47 47 47 47 48
28 29 30 31 31 32 32 33 34 34 35 35 36 37 37 37 37 38 39 40 41 42 43 43 44 45 46 46 47 47 46 46 46 46 46 47 46 47
28 29 30 31 32 33 33 34 34 34 34 35 36 36 37 37 38 39 40 41 42 43 43 44 45 45 46 46 46 45 46 46 46 46 46 46 45 45
28 29 30 31 31 32 33 33 33 33 34 35 35 36 36 37 38 40 41 42 43 43 44 44 44 44 45 45 45 45 45 45 45 45 45 44 44 45
29 30 30 30 31 31 32 32 33 34 34 35 35 36 37 38 39 39 40 41 42 42 42 43 43 44 44 44 44 44 44 45 45 45 44 44 43 43
29 29 29 30 30 31 32 32 34 34 35 35 36 36 37 37 38 39 40 41 41 42 42 42 42 43 43 43 43 44 44 44 44 44 44 43 43 42
28 29 29 30 32 32 33 34 35 36 37 36 37 37 38 39 40 40 41 41 41 41 41 41 42 43 42 42 43 43 43 42 42 43 43 42 42 41
Wind_Direction
273 274 274 273 273 276 280 282 284 285 286 289 288 289 290 289 287 289 286 285 285 285 284 282 282 283 286 288 287 284 285 283 277 273 271 270 269 269
271 275 277 276 273 275 279 282 283 285 286 287 286 288 288 289 287 287 287 285 286 285 284 284 283 284 285 287 287 284 284 284 282 278 272 271 271 272
273 276 278 277 274 275 279 282 283 284 286 285 284 286 287 288 289 287 287 286 284 283 283 284 283 283 283 284 283 283 282 282 281 280 278 276 276 275
273 275 277 278 277 278 280 282 284 284 284 284 284 285 285 286 288 287 286 286 285 283 282 284 284 284 283 283 281 281 281 281 280 280 279 279 278 277
273 275 277 277 279 280 281 282 284 283 284 283 284 284 283 285 288 287 285 285 285 284 285 284 284 283 282 281 281 281 280 280 280 279 279 278 277 276
274 275 277 276 277 279 280 282 283 283 284 284 284 284 284 285 286 286 285 285 284 283 285 284 283 281 281 281 280 280 280 278 279 279 278 277 276 276
275 275 277 278 278 278 281 283 283 281 282 283 283 283 285 285 285 285 284 285 284 282 284 284 283 281 281 280 280 279 279 280 280 279 278 278 277 276
275 275 278 280 279 281 281 281 282 282 281 282 282 283 285 284 284 285 285 285 284 283 283 284 285 283 281 281 281 280 281 281 281 280 279 278 278 277
274 276 279 281 282 283 282 281 282 281 280 280 282 284 284 282 283 284 284 284 284 284 283 284 284 284 283 283 283 283 283 282 281 282 282 280 279 278
275 278 281 282 282 282 282 282 283 282 280 280 281 282 282 282 283 284 285 285 284 283 282 282 283 283 283 283 283 284 283 283 282 282 282 282 281 280
275 278 279 280 282 283 282 282 283 282 282 282 282 283 285 285 285 284 285 285 286 284 283 284 283 283 283 283 283 283 283 283 283 283 283 282 282 281
278 279 280 280 280 281 281 282 283 282 282 283 284 285 285 286 285 284 284 285 286 286 285 284 284 284 284 284 284 284 285 285 284 284 283 283 282 282
280 281 281 281 281 282 283 283 285 285 285 286 286 286 286 287 287 286 285 286 287 287 287 286 286 286 287 287 286 285 285 285 285 285 284 283 283 282
281 281 283 283 283 283 284 284 286 286 287 288 288 289 289 289 289 288 288 287 288 289 289 288 289 289 289 290 289 287 287 286 286 286 285 284 282 281
282 282 284 285 286 287 287 286 287 288 288 288 288 289 291 291 292 292 291 289 289 290 290 290 290 290 290 290 290 290 289 288 287 287 286 285 284 282
283 283 285 286 287 287 287 288 290 291 291 291 291 292 293 293 293 292 291 290 290 290 292 292 292 292 292 291 291 291 290 289 288 288 287 286 285 283
286 286 287 289 289 288 288 290 292 293 293 293 293 294 295 294 294 293 292 292 293 293 293 292 291 291 292 292 291 291 290 290 290 288 287 287 286 285
288 288 289 290 290 290 290 292 293 294 294 295 295 295 295 295 294 294 294 293 293 293 293 293 292 292 292 292 292 292 292 291 290 290 288 287 286 285
290 290 291 292 293 293 292 293 295 295 295 296 297 297 297 297 297 296 296 296 295 295 295 294 294 293 294 295 295 294 293 292 292 291 290 289 287 286
293 294 294 294 294 294 295 296 295 295 296 298 299 300 300 299 299 299 299 298 298 298 297 296 296 295 295 295 295 294 293 293 292 292 291 290 289 288
294 295 295 295 295 296 297 297 298 298 298 300 301 301 301 301 301 301 301 300 300 299 298 298 299 298 297 297 297 296 295 295 294 293 292 290 289 289
295 296 297 297 297 298 298 299 300 300 300 301 301 302 302 303 303 303 303 302 302 302 302 301 301 300 299 299 298 298 297 296 294 293 292 292 290 289
297 298 298 298 299 299 300 299 300 300 301 301 302 303 303 303 304 304 305 305 305 305 304 303 303 302 301 300 300 299 298 297 297 296 295 294 292 291
Height
5883 5883 5883 5883 5883 5883 5883 5883 5883 5882 5881 5880 5880 5879 5878 5877 5876 5875 5875 5874 5873 5872 5871 5870 5870 5869 5868 5867 5866 5865 5864 5863 5863 5862 5862 5861 5861 5861
5880 5880 5880 5879 5879 5880 5880 5879 5879 5878 5878 5877 5876 5875 5874 5873 5872 5872 5871 5870 5869 5868 5867 5866 5865 5864 5863 5862 5861 5860 5860 5859 5858 5857 5857 5856 5856 5856
5877 5877 5877 5876 5876 5876 5876 5876 5875 5874 5874 5873 5872 5871 5870 5870 5868 5867 5866 5865 5864 5863 5862 5862 5860 5859 5858 5857 5856 5855 5855 5854 5853 5852 5852 5851 5850 5850
5873 5873 5873 5873 5873 5872 5872 5872 5871 5870 5869 5868 5867 5867 5866 5865 5864 5863 5861 5860 5859 5858 5857 5856 5855 5854 5853 5852 5851 5850 5849 5848 5847 5847 5846 5845 5844 5843
5870 5870 5869 5869 5868 5868 5867 5867 5866 5865 5864 5863 5862 5861 5861 5859 5859 5857 5856 5855 5854 5853 5852 5850 5849 5848 5847 5846 5845 5844 5843 5842 5841 5840 5839 5838 5837 5836
5866 5865 5865 5864 5864 5863 5862 5862 5861 5860 5859 5858 5857 5856 5855 5854 5853 5852 5850 5849 5848 5846 5845 5844 5843 5841 5840 5839 5838 5837 5836 5834 5833 5832 5831 5830 5829 5828
5861 5861 5860 5860 5859 5858 5857 5857 5855 5854 5853 5852 5851 5850 5849 5848 5847 5845 5844 5843 5841 5840 5838 5837 5836 5834 5833 5831 5830 5829 5828 5826 5825 5824 5822 5821 5820 5818
5856 5855 5855 5854 5854 5853 5852 5851 5850 5848 5847 5846 5845 5844 5842 5841 5840 5838 5837 5836 5834 5833 5831 5829 5828 5826 5824 5823 5822 5820 5819 5817 5815 5814 5812 5811 5809 5808
5850 5850 5849 5848 5848 5847 5846 5844 5843 5842 5841 5840 5839 5837 5836 5834 5833 5831 5829 5827 5826 5824 5823 5821 5819 5817 5815 5813 5812 5811 5809 5807 5805 5804 5802 5800 5798 5797
5844 5844 5843 5842 5841 5840 5839 5838 5837 5835 5834 5833 5831 5830 5828 5827 5825 5823 5821 5820 5818 5816 5814 5813 5810 5808 5806 5804 5802 5800 5798 5796 5794 5792 5790 5788 5787 5784
5838 5837 5837 5836 5835 5833 5832 5831 5830 5828 5826 5825 5823 5821 5820 5818 5816 5814 5812 5811 5809 5807 5805 5803 5800 5798 5796 5793 5791 5789 5786 5784 5782 5780 5777 5775 5773 5771
5832 5831 5830 5829 5828 5826 5825 5823 5822 5820 5819 5817 5815 5813 5811 5809 5807 5805 5803 5801 5799 5797 5794 5792 5789 5787 5785 5782 5779 5776 5774 5771 5769 5766 5764 5762 5759 5757
5826 5825 5824 5822 5821 5819 5818 5816 5814 5812 5810 5808 5806 5804 5802 5800 5797 5795 5793 5791 5789 5786 5784 5781 5778 5775 5772 5770 5767 5764 5760 5758 5755 5752 5749 5747 5744 5742
5820 5819 5817 5816 5814 5812 5811 5809 5807 5805 5802 5800 5798 5795 5793 5790 5788 5785 5783 5780 5778 5775 5772 5769 5766 5763 5760 5757 5754 5751 5747 5744 5741 5738 5735 5732 5730 5727
5813 5812 5811 5809 5807 5805 5803 5801 5799 5797 5794 5792 5789 5787 5784 5781 5778 5775 5773 5770 5767 5764 5760 5757 5754 5751 5748 5744 5741 5737 5734 5730 5727 5723 5720 5717 5714 5711
5807 5805 5804 5802 5800 5798 5795 5793 5791 5788 5786 5783 5780 5778 5774 5771 5768 5765 5762 5759 5756 5753 5749 5745 5742 5738 5735 5731 5727 5723 5719 5716 5712 5709 5705 5702 5699 5696
5801 5799 5797 5794 5792 5790 5787 5785 5782 5780 5777 5774 5771 5768 5764 5761 5757 5754 5751 5747 5744 5741 5737 5733 5729 5725 5721 5717 5713 5709 5704 5701 5697 5694 5690 5687 5684 5681
5793 5791 5789 5786 5784 5781 5779 5776 5774 5770 5767 5764 5761 5757 5753 5750 5746 5743 5739 5735 5732 5728 5724 5720 5716 5712 5707 5703 5699 5694 5690 5686 5682 5678 5675 5672 5669 5665
5785 5783 5781 5778 5775 5773 5770 5767 5764 5761 5757 5754 5750 5746 5743 5739 5735 5731 5727 5723 5719 5714 5710 5706 5702 5697 5693 5690 5685 5680 5676 5672 5668 5664 5660 5656 5653 5650
5777 5775 5772 5769 5767 5764 5761 5757 5754 5751 5747 5744 5740 5736 5732 5728 5724 5720 5715 5711 5706 5702 5697 5693 5688 5684 5679 5675 5671 5667 5662 5657 5653 5650 5646 5642 5638 5635
5769 5766 5764 5761 5758 5755 5752 5748 5745 5741 5738 5734 5730 5726 5722 5717 5713 5708 5704 5699 5694 5689 5685 5680 5675 5671 5665 5661 5657 5653 5649 5644 5639 5635 5631 5628 5624 5620
5761 5758 5755 5752 5749 5746 5743 5739 5736 5732 5728 5724 5720 5716 5711 5707 5702 5697 5692 5687 5682 5677 5672 5668 5663 5658 5653 5648 5644 5639 5635 5630 5626 5621 5617 5613 5609 5606
5753 5750 5747 5744 5741 5737 5734 5730 5726 5722 5718 5714 5709 5705 5700 5696 5691 5686 5681 5675 5670 5665 5660 5655 5651 5646 5640 5635 5631 5626 5621 5617 5612 5608 5604 5600 5596 5592